Regional Weather Roundup
Issued by NWS

Home | Current Version | Previous Version | Graphics & Text | Print | Product List | Glossary On
Versions: 1 2 3 4 5 6 7 8 9 10 11 12 13 14 15 16 17 18 19 20 21 22 23 24 25 26 27 28 29 30 31 32 33 34 35 36 37 38 39 40 41 42 43 44 45 46 47 48 49 50
000
ASUS43 KMKX 211911
RWRWI

WISCONSIN REGIONAL WEATHER ROUNDUP
NATIONAL WEATHER SERVICE MILWAUKEE/SULLIVAN WI
200 PM CDT TUE OCT 21 2014

NOTE: "FAIR" INDICATES FEW OR NO CLOUDS BELOW 12,000 FEET WITH NO
SIGNIFICANT WEATHER AND/OR OBSTRUCTIONS TO VISIBILITY.

WIZ001-002-006>008-014>016-023>028-212000-
NORTHWEST WISCONSIN

CITY           SKY/WX    TMP DP  RH WIND       PRES   REMARKS
SUPERIOR ARPT  CLOUDY    48  37  65 E12       30.23F
ASHLAND        CLOUDY    47  35  63 NE5       30.26F
HAYWARD        SUNNY     47  34  60 SE3       30.22F
SIREN          SUNNY     54  35  47 SE5       30.19F
CUMBERLAND     SUNNY     50  34  53 SE5       30.20F
RICE LAKE      SUNNY     51  36  55 CALM      30.22F
CHETEK         SUNNY     51  37  58 CALM      30.21F
LADYSMITH      SUNNY     53  36  52 S5        30.22F
EAU CLAIRE     SUNNY     54  36  50 MISG      30.20F
MENOMONIE      SUNNY     53  37  55 SE5       30.21F
NEW RICHMOND   SUNNY     54  38  55 SE7       30.19F
OSCEOLA        SUNNY     55  39  56 SE9       30.21F
$$

WIZ003>005-009-010-017-018-212000-
NORTH CENTRAL WISCONSIN

CITY           SKY/WX    TMP DP  RH WIND       PRES   REMARKS
MANITOWISH WTR CLOUDY    41  34  75 CALM      30.24F
ARBOR VITAE    PTSUNNY   43  35  72 SE3       30.24F
WOODRUFF       PTSUNNY   43  35  72 SE3       30.24F
RHINELANDER    MOSUNNY   44  34  67 E5        30.24F
EAGLE RIVER    MOSUNNY   43  32  65 CALM      30.24F
LAND O LAKES   MOSUNNY   46  33  59 SE5       30.24F
PHILLIPS       PTSUNNY   46  36  68 SE8       30.23S
TOMAHAWK       SUNNY     46  34  62 CALM      30.24F
MEDFORD        SUNNY     47  36  66 S6        30.22F
MERRILL        SUNNY     49  35  59 SE3       30.23F
$$

WIZ029-030-035-036-043>047-212000-
CENTRAL WISCONSIN

CITY           SKY/WX    TMP DP  RH WIND       PRES   REMARKS
WAUSAU         MOSUNNY   50  35  56 N6        30.22F
MOSINEE        NOT AVBL
MARSHFIELD     MOSUNNY   48  36  63 E8        30.22F
STEVENS POINT  PTSUNNY   46  34  63 NW3       30.23F
WAUPACA        MOSUNNY   51  36  57 CALM      30.23F
WAUTOMA        CLOUDY    48  35  60 E5        30.24F
WISC RAPIDS    MOSUNNY   47  35  63 E5        30.24F
CAMP DOUGLAS   MOSUNNY   52  39  62 VRB1      30.23F
$$

WIZ011>013-019>022-031-037>040-048>050-212000-
NORTHEAST WISCONSIN

CITY           SKY/WX    TMP DP  RH WIND       PRES   REMARKS
ANTIGO         SUNNY     47  35  62 CALM      30.22F
SHAWANO        SUNNY     52  33  48 E6        30.23F
OCONTO         SUNNY     50  35  55 SE6       30.23S
STURGEON BAY   SUNNY     48  34  57 N16       30.23S
GREEN BAY      SUNNY     50  36  58 N10       30.23F
MANITOWOC      MOSUNNY   50  38  63 NE8G17    30.21F
APPLETON       MOSUNNY   48  34  57 N5        30.23F
CLINTONVILLE   SUNNY     50  32  50 NE5       30.23F
OSHKOSH        SUNNY     49  36  61 E9        30.22F
$$

WIZ032>034-041-042-053>061-212000-
SOUTHWEST WISCONSIN

CITY           SKY/WX    TMP DP  RH WIND       PRES   REMARKS
LA CROSSE      SUNNY     57  38  48 VRB3      30.20F
SPARTA         SUNNY     54  34  47 E5        30.22F
VIROQUA        SUNNY     54  36  51 E3        30.20F
BOSCOBEL       SUNNY     56  36  47 NE7       30.21F
PRAIRIE DU CHI SUNNY     55  37  49 E7        30.19F
PLATTEVILLE    SUNNY     55  38  53 NE8       30.20F
$$

WIZ056-057-062-063-064-067-068-212000-
SOUTH CENTRAL WISCONSIN

CITY           SKY/WX    TMP DP  RH WIND       PRES   REMARKS
REEDSBURG      CLOUDY    47  36  66 NE3       30.23F
BARABOO/DELLS  CLOUDY    47  35  63 N5        30.23F
LONE ROCK      SUNNY     55  37  50 SE9       30.22F
MINERAL POINT  PTSUNNY   52  36  54 E5        30.20F
MADISON        CLOUDY    48  37  65 NE9       30.23S
MIDDLETON      CLOUDY    48  36  63 NE6       30.23F
WATERTOWN      CLOUDY    46  38  74 N3        30.22S
MONROE         CLOUDY    46  37  71 N9        30.21F
JANESVILLE     PTSUNNY   52  37  58 N13       30.21S
$$

WIZ051-052-058>065-066-070>072-212000-
SOUTHEAST WISCONSIN

CITY           SKY/WX    TMP DP  RH WIND       PRES   REMARKS
MILWAUKEE      CLOUDY    48  38  68 N14       30.21R
WAUKESHA       CLOUDY    45  36  70 N10       30.22S
MILWAUKEE/TIMM CLOUDY    48  36  61 N12       30.22S
RACINE         CLOUDY    48  40  73 N14G21    30.21S
BURLINGTON     CLOUDY    48  37  66 N8        30.20S
KENOSHA        CLOUDY    50  39  66 N12       30.20S
FOND DU LAC    CLOUDY    47  36  65 N10       30.23F
SHEBOYGAN      CLOUDY    50  37  61 NE12      30.21F
WEST BEND      CLOUDY    48  34  57 N8        30.21S
JUNEAU         CLOUDY    45  37  74 N8        30.23F
$$

LSZ147-162-212000-
LAKE SUPERIOR

STATION/POSITION TIME  TEMP    WIND        PRES    WAVE
                       AIR SEA DIR/SP/G            HT/PER
                 (UTC) (F)     (DEG/KT/KT) (MB)    (FT/S)
W MID LAKE BUOY  1850   42 46   90/  8/ 10 1025.9F   2/ 6
DEVILS ISLAND    1900   42      80/  9/ 10 1025.8F
PORT WING        1800   45      90/  5/  8 1025.1
SAXON HARBOR     1800   49      CALM  /  5 1024.7F
$$

LMZ867-665-643>646-212000-
LAKE MICHIGAN

STATION/POSITION TIME  TEMP    WIND        PRES    WAVE
                       AIR SEA DIR/SP/G            HT/PER
                 (UTC) (F)     (DEG/KT/KT) (MB)    (FT/S)
CHAMBERS ISLAND  1800   47      10/ 11/ 15 1023.7F
N MID LAKE BUOY  1850   45 51   10/ 12/ 16 1023.6F   2/ 5
NORTHPORT PIER   1800   47     350/ 11/ 14 1023.7S
SISTER BAY       1742           20/ 13/ 20   N/A
KEWAUNEE LAKESHO 1800   47      40/ 12/ 16 1022.6S
SHEBOYGAN LAKESH 1900   47 49   20/ 17/ 18 1023.5F
PORT WASHINGTON  1800   50      20/  6/ 13 1023.7S
ATWATER BUOY     1900   49      10/ 17/ 21 1023.6S
MILWAUKEE LAKESH 1800   48     350/ 12/ 17   N/A
S MID LAKE BUOY  1850   50 54  360/ 17/ 21 1021.5S   6/ 7
KENOSHA   LAKESH 1900   48     350/ 16/ 21 1022.4R
$$

TC  - TEMPERATURE IN CELSIUS
VSB - VISIBILITY IN STATUTE MILES
WCI - WIND CHILL INDEX
HX  - HEAT INDEX




USA.gov is the U.S. government's official web portal to all federal, state and local government web resources and services.